Zurück zum Katalog

STARLINK-6038

AktivKommunikationSSO
NORAD 56317·PAYLOAD·🇺🇸 United States

Gestartet Apr 27, 2023 von Vandenberg Space Force Base

Loading…

Nächste Überflüge (nächste 24 Stunden)

TLE

AktuellSource: CelesTrak SupGP

Epoche: Sep 14, 2026, 20:44 UTC

1 56317C 23058A   26257.86437500  .00059985  00000+0  18621-2 0  2577
2 56317  97.2847 254.6901 0001585  88.5445 171.3028 15.33407441    16

Verfolge STARLINK-6038 in Echtzeit mit AllMySat

Download on the App Store